Location: Stilling
(56.0622°N, 9.9882°E)
Time: 13:24:20
(UTC+00:00)

Cosmos 2058 - Pass Details

Date: 13 July 2020
Orbit: 561 x 584 km, 82.5° (Epoch: 07 August)

Event Time Altitude Azimuth Distance (km) Brightness Sun altitude
Rises 21:45:58 0° 213° (SSW) 2,771 6.1 -9.5°
Reaches altitude 10° 21:48:17 10° 222° (SW) 1,874 5.3 -9.6°
Maximum altitude 21:52:08 37° 291° (WNW) 897 4.3 -9.8°
Drops below altitude 10° 21:55:59 10° 360° (N) 1,877 6.8 -10.0°
Sets 21:58:18 0° 8° (N) 2,776 7.6 -10.1°
